Weather History for LHKE - February, 2013

Change the Weather History Date:

Tuesday, February 12, 2013

  Actual Average (LHBP) Record (LHBP)
Temperature  
Mean Temperature 28 °F -  
Max Temperature 35 °F 40 °F 60 °F (1998)
Min Temperature 21 °F 25 °F 5 °F (2012)
Degree Days  
Heating Degree Days 37    
Moisture  
Dew Point 28 °F    
Average Humidity 85    
Maximum Humidity 100    
Minimum Humidity 70    
Precipitation  
Precipitation 0.00 in - - ()
Sea Level Pressure  
Sea Level Pressure 29.83 in    
Wind  
Wind Speed 10 mph ()    
Max Wind Speed 16 mph    
Max Gust Speed -    
Visibility 4.3 miles    
Events Rain    
Averages and records for this station are not official NWS values.
T = Trace of Precipitation, MM = Missing Value Source: Averaged Metar Reports

Daily Weather History Graph

Daily Weather History Graph

Search for Another Location

Airport or City:

Trip Planner

Search our weather history database for the weather conditions in past years. The results will help you decide how hot, cold, wet, or windy it might be!

Date:

Astronomy

Feb. 12, 2013 Rise Set
Actual Time 6:50 AM CET 5:00 PM CET
Civil Twilight 6:18 AM CET 5:32 PM CET
Nautical Twilight 5:42 AM CET 6:08 PM CET
Astronomical Twilight 5:07 AM CET 6:43 PM CET
Moon 7:25 AM CET (2/12) 7:57 PM CET (2/12)
Length of Visible Light 11h 13m
Length of Day
10h 10m
Waxing Crescent, 6% of the Moon is Illuminated
Feb 12
Waxing Crescent
Feb 17
First Quarter
Feb 25
Full
Mar 4
Last Quarter
Mar 11
New

Hourly Weather History & Observations

Time (CET) Temp. Windchill Dew Point Humidity Pressure Visibility Wind Dir Wind Speed Gust Speed Precip Events Conditions
12:15 AM 21.2 °F 11.0 °F 21.2 °F 100% 29.89 in 2.5 mi ENE 8.9 mph - N/A   Mostly Cloudy
12:45 AM 21.2 °F 11.0 °F 21.2 °F 100% 29.89 in 2.5 mi ENE 8.9 mph - N/A   Mostly Cloudy
1:15 AM 23.0 °F 13.2 °F 21.2 °F 93% 29.89 in 2.5 mi ENE 8.9 mph - N/A   Mostly Cloudy
1:45 AM 24.8 °F 15.5 °F 23.0 °F 93% 29.89 in 2.5 mi ENE 8.9 mph - N/A   Overcast
2:15 AM 26.6 °F 17.7 °F 24.8 °F 93% 29.86 in 3.1 mi ENE 8.9 mph - N/A   Overcast
2:45 AM 26.6 °F 16.4 °F 24.8 °F 93% 29.86 in 3.1 mi ENE 11.2 mph - N/A   Overcast
3:15 AM 26.6 °F 17.7 °F 24.8 °F 93% 29.86 in 3.1 mi East 8.9 mph - N/A   Overcast
3:45 AM 26.6 °F 16.4 °F 24.8 °F 93% 29.86 in 3.7 mi East 11.2 mph - N/A   Unknown
4:15 AM 26.6 °F 17.7 °F 24.8 °F 93% 29.83 in 3.7 mi ENE 8.9 mph - N/A   Unknown
4:45 AM 28.4 °F 18.7 °F 24.8 °F 86% 29.83 in 5.0 mi ENE 11.2 mph - N/A   Unknown
5:15 AM 28.4 °F 17.6 °F 26.6 °F 93% 29.80 in 5.0 mi East 13.4 mph - N/A   Unknown
5:45 AM - - - N/A% - 3.1 mi East 11.2 mph - N/A Rain Light Freezing Rain
6:15 AM 30.2 °F 20.9 °F 26.6 °F 86% 29.80 in - East 11.2 mph - N/A   Clear
6:45 AM 30.2 °F 19.9 °F 26.6 °F 86% 29.80 in - East 13.4 mph - N/A   Clear
7:15 AM 30.2 °F 19.9 °F 24.8 °F 80% 29.80 in - East 13.4 mph - N/A   Clear
7:45 AM 30.2 °F 19.9 °F 24.8 °F 80% 29.80 in - ENE 13.4 mph - N/A   Clear
8:15 AM 30.2 °F 20.9 °F 24.8 °F 80% 29.80 in - East 11.2 mph - N/A   Clear
8:45 AM - - - N/A% - 3.1 mi East 11.2 mph - N/A Rain Light Rain
9:15 AM 32.0 °F 23.2 °F 24.8 °F 75% 29.83 in - East 11.2 mph - N/A   Clear
9:45 AM 32.0 °F 23.2 °F 26.6 °F 80% 29.83 in - ENE 11.2 mph - N/A   Clear
10:06 AM 32.0 °F 23.2 °F 26.6 °F 80% 29.83 in 6.2 mi ENE 11.2 mph - N/A Rain Light Rain
10:09 AM 32.0 °F 23.2 °F 26.6 °F 80% 29.83 in 6.2 mi ENE 11.2 mph - N/A   Ice Pellets
10:15 AM 32.0 °F 23.2 °F 26.6 °F 80% 29.83 in 6.2 mi East 11.2 mph - N/A   Ice Pellets
10:45 AM 32.0 °F 23.2 °F 28.4 °F 87% 29.83 in 6.2 mi ENE 11.2 mph - N/A Rain Light Ice Pellets
11:15 AM 33.8 °F 25.4 °F 28.4 °F 81% 29.83 in 6.2 mi East 11.2 mph - N/A Rain Light Ice Pellets
11:45 AM - - - N/A% - 3.1 mi East 11.2 mph - N/A Rain Light Rain
12:15 PM 35.6 °F 26.8 °F 26.6 °F 70% 29.80 in - East 13.4 mph - N/A   Clear
12:45 PM 35.6 °F 26.8 °F 28.4 °F 75% 29.80 in - East 13.4 mph - N/A   Clear
1:15 PM 35.6 °F 26.8 °F 28.4 °F 75% 29.80 in - East 13.4 mph - N/A   Clear
1:45 PM 35.6 °F 26.0 °F 28.4 °F 75% 29.80 in - East 15.7 mph - N/A   Clear
2:15 PM 35.6 °F 26.8 °F 28.4 °F 75% 29.80 in - East 13.4 mph - N/A   Clear
2:45 PM - - - N/A% - 3.1 mi East 11.2 mph - N/A Rain Light Rain
3:15 PM 35.6 °F 26.0 °F 30.2 °F 81% 29.80 in - East 15.7 mph - N/A   Clear
3:45 PM 35.6 °F 26.8 °F 30.2 °F 81% 29.80 in - East 13.4 mph - N/A   Clear
4:15 PM 35.6 °F 27.7 °F 30.2 °F 81% 29.80 in - ENE 11.2 mph - N/A   Clear
4:45 PM 35.6 °F 27.7 °F 30.2 °F 81% 29.80 in - East 11.2 mph - N/A   Clear
5:15 PM 35.6 °F 26.8 °F 30.2 °F 81% 29.80 in - East 13.4 mph - N/A   Clear
5:45 PM - - - N/A% - 3.1 mi East 8.9 mph - N/A Rain Light Rain
6:06 PM 35.6 °F 30.0 °F 30.2 °F 81% 29.83 in 6.2 mi ENE 6.7 mph - N/A Rain Light Rain
6:15 PM 35.6 °F 31.8 °F 30.2 °F 81% 29.83 in 6.2 mi ENE 4.5 mph - N/A Rain Light Rain
6:45 PM 33.8 °F 27.9 °F 32.0 °F 93% 29.83 in 6.2 mi East 6.7 mph - N/A Rain Light Rain
7:15 PM 33.8 °F 27.9 °F 32.0 °F 93% 29.83 in 5.0 mi East 6.7 mph - N/A Rain Rain
7:45 PM 35.6 °F 30.0 °F 32.0 °F 87% 29.83 in 4.3 mi East 6.7 mph - N/A Rain Rain
8:15 PM 35.6 °F 28.7 °F 32.0 °F 87% 29.83 in 4.3 mi ENE 8.9 mph - N/A Rain Rain
8:45 PM - - - N/A% - 3.1 mi ENE 8.9 mph - N/A Rain Light Rain
9:15 PM 35.6 °F 30.0 °F 32.0 °F 87% 29.83 in 5.0 mi East 6.7 mph - N/A Rain Light Rain
9:45 PM 35.6 °F 28.7 °F 32.0 °F 87% 29.86 in 5.0 mi East 8.9 mph - N/A Rain Light Rain
10:15 PM 35.6 °F 30.0 °F 32.0 °F 87% 29.86 in 6.2 mi East 6.7 mph - N/A Rain Light Rain
10:45 PM 35.6 °F 30.0 °F 32.0 °F 87% 29.86 in 6.2 mi East 6.7 mph - N/A Rain Light Rain
11:15 PM 35.6 °F 30.0 °F 32.0 °F 87% 29.86 in - ENE 6.7 mph - N/A   Clear
11:45 PM - - - N/A% - 0.8 mi North - - N/A Rain Light Rain